Погода в Издешкове

Россия / Смоленская область     55°08′36″N   33°37′21″E
темп.,
°C
ветер,
м/с
пор.,
м/с
влажн.,
%
обл.,
%
осадки,
мм/ч
давл.,
гПа
погр.,
м
12 августа, пт
пт1200:00+14всв22710 0.0 102627
03:00+13всв22730 0.0 102610
06:00+12св12752 0.0 102610
09:00+19св22565 0.0 1026292
12:00+24св22420 0.0 10261204
15:00+25с22380 0.0 10241474
18:00+24с23501 0.0 1023267
21:00+17всв22640 0.0 102411
13 августа, сб
сб1300:00+15всв22701 0.0 102415
03:00+14всв227624 0.0 102411
06:00+13всв228095 0.0 102326
09:00+20в2359100 0.0 1023302
12:00+24всв2345100 0.0 1022982
15:00+26всв2339100 0.0 10211308
18:00+25ссв2453100 0.0 1020190
21:00+18св3764100 0.0 102095
14 августа, вс
вс1400:00+17св356699 0.0 102083
03:00+16в2269100 0.0 102044
06:00+15всв2375100 0.0 102048
09:00+21в3457100 0.0 1019319
12:00+26в344138 0.0 10191068
15:00+28вюв343958 0.0 10181731
18:00+26юв345177 0.0 1018483
21:00+20вюв22705 0.0 101811
15 августа, пн
пн1500:00+18в227653 0.0 101912
03:00+18всв237490 0.0 101944
06:00+18всв2672100 0.0 1019141
09:00+22вюв36577 0.0 1019406
12:00+27вюв454020 0.0 10181078
15:00+29в453698 0.0 10171624
18:00+28в3747100 0.0 1017390
21:00+22в3863100 0.0 1018150
16 августа, вт
вт1600:00+20вюв386799 0.0 1018142
03:00+19в3106699 0.0 1018205
06:00+19в31065100 0.0 1018201
09:00+23вюв51151100 0.0 1018444
12:00+28юв710366 0.0 10171075
15:00+29юв6836100 0.0 10171687
18:00+27юв5845100 0.0 1017867
21:00+21вюв386274 0.0 1018139